ATLAS 5 CENTAUR DEB, 51477

Orbit data source: Space-Track

ATLAS 5 CENTAUR DEB, 51477 is space debris in HEO originally from a launch on Wed, 17 Sep 2014 UTC launched from the Air Force Eastern Test Range (AFETR). Debris objects in space refer to the collection of defunct objects orbiting the Earth. Examples of debris include non-operational satellites, rocket bodies, and fragments generated from explosions, collisions, or faulty payload assembly.

Loading next visibility...
Identifier
51477, 2014-055DH
Orbit
HEO
Country
Flag of USUS
Related business
Flag of USUnited Launch Alliance/Lockheed Martin (US)
Manufacturer
Unknown
Mission
Spacecraft
Bus & Motor
Unknown
Mass
Unknown
Launch date (UTC)
2014-09-17 (11 years ago)
Launch vehicle
Unknown
Launch site
Air Force Eastern Test Range (AFETR)
Object type
Payload
Rocket body
Debris
Shape & HBR
Unknown shape, 1.1 m
Radar Cross Section
RCS unknown

Expand to show TLE details & history
Last TLE update: 2 days ago

TLE from 2 days ago
0 ATLAS 5 CENTAUR DEB
1 51477U 14055DH  25289.86718852 -.00000241  00000-0  00000+0 0  9997
2 51477  21.0004 110.2582 5105371 226.2353  78.2432  1.94665102 22247
Epoch: 2025-10-16T20:48Z
TLE epoch observation values (Epoch: 2025-10-16T20:48:45.088Z)
Latitude
-0.00002°
Longitude
132.46327°
Altitude
24,559.724 km
Speed
3.325 km/s
True Right ascension
07h 21m 05s
True Declination
0° 00' 00"
Sunlit
Object was in daylight at epoch
Visualization orbit readout
Latitude
Unknown
Longitude
Unknown
Altitude
Unknown
Speed
Unknown
Apparent Right ascension
Unknown
Apparent Declination
Unknown
Sunlit
N/A
Visualization observer readout
Local Sidereal Time
17:09:28
Azimuth
Unknown
Elevation
Unknown
Doppler factor
Unknown
Orbital elements
Apogee altitude
34,551.811 km
Perigee altitude
6,884.491 km
Semi-major axis
27,096.288 km
Eccentricity
0.51054
Inclination
21.0004°
RAAN
110.2582°
Arg. of periapsis
226.2353°
True anomaly
133.80441°
Mean anomaly
78.2432°
Eccentric anomaly
106.31667°
Mean motion
0.48661 °/min
Orbital period
739.82 mins
BSTAR
0
Loading maneuver chart data...
Computing Atmospheric mass density...

Documentation

Showing up to 5 results
|